Regional Weather Roundup
Issued by NWS

Home | Current Version | Previous Version | Text Only | Print | Product List | Glossary On
Versions: 1 2 3 4 5 6 7 8 9 10 11 12 13 14 15 16 17 18 19 20 21 22 23 24 25 26 27 28 29 30 31 32 33 34 35 36 37 38 39 40 41 42 43 44 45 46 47 48 49 50
000
ASUS43 KLMK 240910
RWRKY
KENTUCKY REGIONAL WEATHER ROUNDUP
NATIONAL WEATHER SERVICE LOUISVILLE KY
500 AM EDT SUN JUL 24 2016

NOTE "FAIR" INDICATES FEW OR NO CLOUDS BELOW 12,000 FEET
WITH NO SIGNIFICANT WEATHER AND/OR OBSTRUCTIONS TO VISIBILITY.

KYZ001>023-026-027-061>063-070>075-241000-
WESTERN AND SOUTH CENTRAL KENTUCKY

CITY           SKY/WX    TMP DP  RH WIND       PRES   REMARKS
PADUCAH        CLEAR     77  73  87 CALM      29.94S
HENDERSON      CLEAR     75  72  88 CALM      29.94F
OWENSBORO      CLEAR     79  79 100 S5        29.97S FOG
HOPKINSVILLE   CLEAR     76  74  96 E1        29.97F
BOWLING GREEN  CLOUDY    77  73  87 S5        29.99S
GLASGOW        CLEAR     73  73 100 SE3       30.01R
$$

KYZ024-025-028>034-038-045-046-053-241000-
NORTH CENTRAL KENTUCKY

CITY           SKY/WX    TMP DP  RH WIND       PRES   REMARKS
LOUISVILLE/SDF CLOUDY    80  76  87 S6        29.96F
LOUISVILLE/LOU CLEAR     80  75  84 CALM      29.97F
FORT KNOX      CLEAR     74  74  98 SE2       29.97F
$$

KYZ035>037-039>044-047>052-055>060-089>105-241000-
NORTHEAST KENTUCKY

CITY           SKY/WX    TMP DP  RH WIND       PRES   REMARKS
LEXINGTON      CLEAR     76  72  87 SW3       30.02S
COVINGTON      CLOUDY    75  73  93 CALM      29.99F
FRANKFORT      PTCLDY    76  72  87 CALM      29.99F
$$

KYZ054-064>069-076>088-106>120-241000-
SOUTHEAST KENTUCKY

CITY           SKY/WX    TMP DP  RH WIND       PRES   REMARKS
JACKSON        CLEAR     73  70  90 CALM      30.05R
LONDON         CLEAR     73  69  87 CALM      30.04S
SOMERSET       CLEAR     70  70 100 CALM      30.04S
MIDDLESBORO    CLOUDY    71  71 100 CALM      30.06R
MONTICELLO     SUNNY    N/A N/A N/A W10       30.04S
$$





USA.gov is the U.S. government's official web portal to all federal, state and local government web resources and services.